When you browse on this site, cookies collect data to enhance your experience and personalize the content and advertising you see.
Visit our Privacy Policy to learn more. By continuing to use the site, you agree to this use of cookies and data.
  • In Austria
  • List of Countries
  • For 7 days
  • Water Temperature
  • Weather Map
  • News
  • Weather Widgets
  • user-avatar
    Login

    Hourly Weather Tlanchinol

    Today, 27 January, Monday

    Time Temperature Precipitation Wind Pressure Humidity
    00:00 +14°C° 0.1 mm 1 mps 645 mmHg 87%
    01:00 +14°C° 0.1 mm 1 mps 645 mmHg 88%
    02:00 +14°C° 0.1 mm 1 mps 645 mmHg 88%
    03:00 +13°C° 0 mm 1 mps 645 mmHg 88%
    04:00 +13°C° 0 mm 1 mps 645 mmHg 89%
    05:00 +13°C° 0 mm 1 mps 645 mmHg 89%
    06:00 +14°C° 0 mm 1 mps 645 mmHg 85%
    07:00 +15°C° 0 mm 1 mps 646 mmHg 81%
    08:00 +15°C° 0 mm 0 mps 647 mmHg 78%
    09:00 +19°C° 0 mm 1 mps 647 mmHg 72%
    10:00 +20°C° 0 mm 1 mps 647 mmHg 66%
    11:00 +21°C° 0 mm 2 mps 647 mmHg 60%
    12:00 +21°C° 0.1 mm 2 mps 647 mmHg 61%
    13:00 +21°C° 0.1 mm 2 mps 646 mmHg 63%
    14:00 +21°C° 0.1 mm 2 mps 645 mmHg 64%
    15:00 +20°C° 0 mm 2 mps 644 mmHg 71%
    16:00 +20°C° 0 mm 1 mps 644 mmHg 78%
    17:00 +18°C° 0 mm 1 mps 643 mmHg 86%
    18:00 +16°C° 0 mm 1 mps 644 mmHg 89%
    19:00 +15°C° 0 mm 1 mps 644 mmHg 92%
    20:00 +14°C° 0 mm 1 mps 644 mmHg 95%
    21:00 +14°C° 0 mm 1 mps 644 mmHg 95%
    22:00 +14°C° 0 mm 1 mps 644 mmHg 94%
    23:00 +13°C° 0 mm 1 mps 644 mmHg 94%

    Tomorrow, 28 January, Tuesday

    Time Temperature Precipitation Wind Pressure Humidity
    00:00 +13°C° 0 mm 1 mps 643 mmHg 93%
    01:00 +13°C° 0 mm 1 mps 643 mmHg 93%
    02:00 +13°C° 0 mm 1 mps 643 mmHg 92%
    03:00 +13°C° 0 mm 1 mps 643 mmHg 91%
    04:00 +13°C° 0 mm 1 mps 642 mmHg 89%
    05:00 +13°C° 0 mm 1 mps 642 mmHg 88%
    06:00 +14°C° 0 mm 1 mps 643 mmHg 82%
    07:00 +14°C° 0 mm 0 mps 644 mmHg 77%
    08:00 +16°C° 0 mm 0 mps 645 mmHg 71%
    09:00 +17°C° 0 mm 0 mps 645 mmHg 66%
    10:00 +21°C° 0 mm 1 mps 645 mmHg 61%
    11:00 +23°C° 0 mm 1 mps 645 mmHg 56%
    12:00 +23°C° 0 mm 2 mps 645 mmHg 56%
    13:00 +23°C° 0 mm 2 mps 644 mmHg 57%
    14:00 +23°C° 0 mm 2 mps 644 mmHg 57%
    15:00 +21°C° 0.1 mm 2 mps 644 mmHg 65%
    16:00 +19°C° 0.1 mm 2 mps 643 mmHg 74%
    17:00 +19°C° 0.1 mm 1 mps 643 mmHg 82%
    18:00 +18°C° 0.3 mm 1 mps 644 mmHg 87%
    19:00 +16°C° 0.3 mm 1 mps 644 mmHg 91%
    20:00 +15°C° 0.3 mm 1 mps 645 mmHg 95%
    21:00 +14°C° 0.5 mm 1 mps 645 mmHg 95%
    22:00 +14°C° 0.5 mm 1 mps 645 mmHg 95%
    23:00 +13°C° 0.5 mm 1 mps 645 mmHg 95%

    Day after tomorrow, 29 January, Wednesday

    Time Temperature Precipitation Wind Pressure Humidity
    00:00 +13°C° 0.7 mm 1 mps 645 mmHg 95%
    01:00 +13°C° 0.7 mm 1 mps 645 mmHg 96%
    02:00 +13°C° 0.7 mm 2 mps 645 mmHg 96%
    03:00 +12°C° 1.1 mm 1 mps 645 mmHg 94%
    04:00 +11°C° 1.1 mm 1 mps 645 mmHg 92%
    05:00 +9°C° 1.1 mm 1 mps 645 mmHg 91%
    06:00 +10°C° 0 mm 1 mps 645 mmHg 85%
    07:00 +10°C° 0 mm 1 mps 646 mmHg 80%
    08:00 +11°C° 0 mm 1 mps 647 mmHg 75%
    09:00 +12°C° 0 mm 1 mps 647 mmHg 67%
    10:00 +13°C° 0 mm 1 mps 647 mmHg 59%
    11:00 +14°C° 0 mm 2 mps 647 mmHg 51%
    12:00 +15°C° 0 mm 2 mps 646 mmHg 52%
    13:00 +15°C° 0 mm 2 mps 645 mmHg 54%
    14:00 +14°C° 0 mm 3 mps 644 mmHg 55%
    15:00 +14°C° 0 mm 2 mps 644 mmHg 63%
    16:00 +12°C° 0 mm 2 mps 644 mmHg 71%
    17:00 +10°C° 0 mm 2 mps 643 mmHg 79%
    18:00 +10°C° 0 mm 1 mps 644 mmHg 83%
    19:00 +10°C° 0 mm 1 mps 644 mmHg 86%
    20:00 +8°C° 0 mm 0 mps 644 mmHg 90%
    21:00 +8°C° 0 mm 0 mps 644 mmHg 90%
    22:00 +8°C° 0 mm 0 mps 644 mmHg 90%
    23:00 +8°C° 0 mm 0 mps 644 mmHg 91%

    30 January, Thursday

    Time Temperature Precipitation Wind Pressure Humidity
    00:00 +7°C° 0 mm 0 mps 643 mmHg 92%
    01:00 +7°C° 0 mm 0 mps 643 mmHg 93%
    02:00 +7°C° 0 mm 0 mps 642 mmHg 94%
    03:00 +7°C° 0 mm 1 mps 642 mmHg 93%
    04:00 +7°C° 0 mm 1 mps 642 mmHg 93%
    05:00 +7°C° 0 mm 1 mps 642 mmHg 93%
    06:00 +9°C° 0 mm 1 mps 642 mmHg 86%
    07:00 +10°C° 0 mm 0 mps 643 mmHg 79%
    08:00 +11°C° 0 mm 0 mps 644 mmHg 73%
    09:00 +14°C° 0 mm 1 mps 644 mmHg 67%
    10:00 +16°C° 0 mm 1 mps 644 mmHg 62%
    11:00 +18°C° 0 mm 2 mps 644 mmHg 56%
    12:00 +18°C° 0 mm 2 mps 643 mmHg 59%
    13:00 +18°C° 0 mm 2 mps 643 mmHg 62%
    14:00 +18°C° 0 mm 2 mps 642 mmHg 65%
    15:00 +16°C° 0 mm 2 mps 641 mmHg 73%
    16:00 +15°C° 0 mm 1 mps 641 mmHg 80%
    17:00 +14°C° 0 mm 1 mps 641 mmHg 88%
    18:00 +14°C° 0 mm 1 mps 641 mmHg 86%
    19:00 +13°C° 0 mm 1 mps 642 mmHg 84%
    20:00 +12°C° 0 mm 0 mps 643 mmHg 82%
    21:00 +13°C° 0 mm 1 mps 643 mmHg 80%
    22:00 +12°C° 0 mm 1 mps 642 mmHg 78%
    23:00 +12°C° 0 mm 1 mps 642 mmHg 77%

    31 January, Friday

    Time Temperature Precipitation Wind Pressure Humidity
    00:00 +12°C° 0 mm 1 mps 642 mmHg 78%
    01:00 +11°C° 0 mm 1 mps 642 mmHg 79%
    02:00 +11°C° 0 mm 1 mps 642 mmHg 81%
    03:00 +11°C° 0 mm 1 mps 642 mmHg 84%
    04:00 +11°C° 0 mm 1 mps 643 mmHg 88%
    05:00 +11°C° 0 mm 1 mps 643 mmHg 91%
    06:00 +11°C° 0 mm 1 mps 644 mmHg 91%
    07:00 +11°C° 0 mm 1 mps 645 mmHg 90%
    08:00 +12°C° 0 mm 1 mps 645 mmHg 90%
    09:00 +12°C° 0 mm 1 mps 646 mmHg 85%
    10:00 +13°C° 0 mm 1 mps 646 mmHg 80%
    11:00 +14°C° 0 mm 1 mps 646 mmHg 76%
    12:00 +14°C° 0 mm 2 mps 646 mmHg 74%
    13:00 +15°C° 0 mm 2 mps 646 mmHg 73%
    14:00 +15°C° 0 mm 2 mps 645 mmHg 72%
    15:00 +14°C° 0.2 mm 2 mps 646 mmHg 78%
    16:00 +13°C° 0.2 mm 2 mps 646 mmHg 85%
    17:00 +12°C° 0.2 mm 1 mps 646 mmHg 91%
    18:00 +11°C° 0.1 mm 1 mps 646 mmHg 91%
    19:00 +10°C° 0.1 mm 1 mps 647 mmHg 92%
    20:00 +10°C° 0.1 mm 1 mps 647 mmHg 92%
    21:00 +9°C° 0.2 mm 1 mps 648 mmHg 92%
    22:00 +9°C° 0.2 mm 1 mps 648 mmHg 92%
    23:00 +9°C° 0.2 mm 1 mps 648 mmHg 92%

    1 February, Saturday

    Time Temperature Precipitation Wind Pressure Humidity
    00:00 +9°C° 0.2 mm 1 mps 647 mmHg 93%
    01:00 +8°C° 0.2 mm 1 mps 647 mmHg 94%
    02:00 +8°C° 0.2 mm 1 mps 647 mmHg 95%
    03:00 +8°C° 0.6 mm 1 mps 647 mmHg 95%
    04:00 +8°C° 0.6 mm 1 mps 647 mmHg 95%
    05:00 +7°C° 0.6 mm 0 mps 648 mmHg 95%
    06:00 +8°C° 1 mm 1 mps 648 mmHg 95%
    07:00 +8°C° 1 mm 1 mps 649 mmHg 95%
    08:00 +8°C° 1 mm 1 mps 649 mmHg 95%
    09:00 +8°C° 0.5 mm 1 mps 649 mmHg 95%
    10:00 +8°C° 0.5 mm 1 mps 649 mmHg 96%
    11:00 +8°C° 0.5 mm 1 mps 649 mmHg 96%
    12:00 +8°C° 0.1 mm 1 mps 649 mmHg 95%
    13:00 +8°C° 0.1 mm 1 mps 648 mmHg 95%
    14:00 +8°C° 0.1 mm 1 mps 647 mmHg 94%
    15:00 +8°C° 0 mm 1 mps 648 mmHg 94%
    16:00 +8°C° 0 mm 1 mps 648 mmHg 94%
    17:00 +7°C° 0 mm 0 mps 648 mmHg 94%
    18:00 +7°C° 0 mm 0 mps 648 mmHg 94%
    19:00 +7°C° 0 mm 0 mps 649 mmHg 93%
    20:00 +7°C° 0 mm 0 mps 650 mmHg 93%
    21:00 +7°C° 0 mm 0 mps 650 mmHg 93%
    22:00 +7°C° 0 mm 0 mps 650 mmHg 92%
    23:00 +7°C° 0 mm 0 mps 650 mmHg 92%
    Show more